Location: Sundre
(51.7972°N, 114.6405°W)
Time: 03:42:18
(UTC-07:00)

YUBILEINY - Visible Passes

Search period start: 23 January 2020 00:00
Search period end: 02 February 2020 00:00
Orbit: 1478 x 1509 km, 82.5° (Epoch: 22 January)

Date Brightness Start Highest point End Pass type
(mag) Time Alt. Az. Time Alt. Az. Time Alt. Az.
23 Jan ? 01:11:31 10° N 01:15:36 14° NE 01:17:21 13° NE visible
23 Jan ? 03:07:04 10° N 03:23:14 12° SE 03:23:44 10° SE visible
23 Jan ? 05:04:01 10° NNW 05:19:18 17° SSW 05:21:01 10° SSW visible
23 Jan ? 07:03:32 10° NW 07:15:22 - WSW 07:04:51 12° NW visible
23 Jan ? 18:11:18 10° SSW 18:19:51 60° WNW 18:28:31 10° N visible
23 Jan ? 20:13:20 10° W 20:18:56 18° NW 20:24:35 10° N visible
24 Jan ? 02:17:42 10° N 02:23:19 27° NE 02:23:19 27° NE visible
24 Jan ? 04:14:16 10° NNW 04:31:54 10° S 04:31:57 10° S visible
24 Jan ? 06:12:14 10° NNW 06:27:58 - SW 06:15:02 18° NW visible
24 Jan ? 19:20:58 10° WSW 19:28:11 28° NW 19:35:27 10° N visible
25 Jan ? 01:28:33 10° N 01:33:39 18° NE 01:33:39 18° NE visible
25 Jan ? 03:24:39 10° N 03:44:17 - SSE 03:29:31 36° N visible
25 Jan ? 05:21:57 10° NNW 05:40:19 - SSW 05:25:23 24° NW visible
25 Jan ? 18:29:38 10° SW 18:37:49 43° WNW 18:46:06 10° N visible
25 Jan ? 20:33:46 10° WNW 20:37:40 13° NW 20:41:36 10° N visible
26 Jan ? 00:40:02 10° NNE 00:43:10 12° NE 00:44:06 12° NE visible
26 Jan ? 02:35:11 10° N 02:39:58 30° NNE 02:39:58 30° NNE visible
26 Jan ? 04:32:01 10° NNW 04:35:51 30° NNW 04:35:51 30° NNW visible
26 Jan ? 06:30:52 10° NW 06:31:44 12° NW 06:31:44 12° NW visible
26 Jan ? 17:39:10 10° SSW 17:47:49 68° WNW 17:56:35 10° N visible
26 Jan ? 19:40:27 10° W 19:46:36 21° NW 19:52:50 10° N visible
27 Jan ? 01:45:52 10° N 01:50:30 23° NNE 01:50:30 23° NNE visible
27 Jan ? 03:42:18 10° N 03:46:23 32° N 03:46:23 32° N visible
27 Jan ? 05:40:02 10° NNW 05:42:16 17° NW 05:42:16 17° NW visible
27 Jan ? 18:48:25 10° WSW 18:55:58 32° WNW 19:03:37 10° N visible
28 Jan ? 00:56:49 10° N 01:01:05 16° NE 01:01:05 16° NE visible
28 Jan ? 02:52:44 10° N 02:56:57 30° N 02:56:57 30° N visible
28 Jan ? 04:49:53 10° NNW 04:52:51 23° NNW 04:52:51 23° NNW visible
28 Jan ? 17:57:21 10° SW 18:05:44 50° WNW 18:14:13 10° N visible
28 Jan ? 20:00:32 10° WNW 20:05:16 15° NW 20:10:00 10° N visible
29 Jan ? 00:08:54 10° NNE 00:10:41 11° NNE 00:11:42 10° NE visible
29 Jan ? 02:03:18 10° N 02:07:35 26° NNE 02:07:35 26° NNE visible
29 Jan ? 04:00:01 10° NNW 04:03:29 27° NNW 04:03:29 27° NNW visible
29 Jan ? 05:58:26 10° NNW 05:59:22 12° NW 05:59:22 12° NW visible
29 Jan ? 19:07:41 10° WSW 19:14:20 23° NW 19:21:02 10° N visible
30 Jan ? 01:14:03 10° N 01:18:14 20° NNE 01:18:14 20° NNE visible
30 Jan ? 03:10:22 10° N 03:14:08 29° N 03:14:08 29° N visible
30 Jan ? 05:07:54 10° NNW 05:10:01 18° NNW 05:10:01 18° NNW visible
30 Jan ? 18:15:57 10° SW 18:23:48 36° WNW 18:31:45 10° N visible
30 Jan ? 20:21:39 10° NW 20:24:07 11° NNW 20:26:35 10° NNW visible
31 Jan ? 00:25:09 10° N 00:28:55 14° NE 00:28:55 14° NE visible
31 Jan ? 02:20:50 10° N 02:24:49 28° N 02:24:49 28° N visible
31 Jan ? 04:17:51 10° NNW 04:20:42 23° NNW 04:20:42 23° NNW visible
31 Jan ? 19:27:29 10° W 19:32:53 17° NW 19:38:19 10° N visible
01 Feb ? 01:31:27 10° N 01:35:31 24° NNE 01:35:31 24° NNE visible
01 Feb ? 03:28:03 10° NNW 03:31:25 27° NNW 03:31:25 27° NNW visible
01 Feb ? 05:26:08 10° NNW 05:27:18 13° NW 05:27:18 13° NW visible
01 Feb ? 18:35:00 10° WSW 18:42:04 27° NW 18:49:14 10° N visible
